Quillayute, WA
on Tuesday, December 18, 2012

Tuesday
Previous Day Next Day
Daily Summary
 ActualAverageRecord
Temperature
Mean Temperature °F 40°F  
Max Temperature 40°F 46°F 59°F (2004)
Min Temperature 31°F 34°F 20°F (2008)
Degree Days
Heating Degree Days 29 25  
Month to date heating degree days 442  
Since 1 July heating degree days 2156  
Cooling Degree Days 0 0  
Month to date cooling degree days 0  
Year to date cooling degree days 19  
Moisture
Dew Point 33°F   
Average Humidity 94    
Maximum Humidity 100    
Minimum Humidity 85    
Precipitation
Precipitation 0.08 in 0.39 in 2.38 in (1972)
Month to date precipitation 7.73  
Year to date precipitation 94.28  
Wind
Wind Speed 5 mph   
Max Wind Speed 15 mph   
Max Gust Speed 24 mph   
Visibility 5 miles   
Events Rain , Snow   

Key: T is trace of precipitation, MM is missing value
Source: NWS Daily Summary
Time(PST)TemperatureDew PointHumidity Pressure Visibility Wind DirectionWind SpeedGust SpeedPrecipitationEvents Conditions
12:12 AM 33.8°F 33.8°F 100% 29.83 in 6.0 miles ESE 3.5 mph - 0.00 in   Mostly Cloudy
12:53 AM 33.1°F 32.0°F 96% 29.82 in 6.0 miles Calm Calm - 0.00 in   Mostly Cloudy
1:36 AM 33.8°F 33.8°F 100% 29.82 in 5.0 miles Calm Calm - 0.03 in   Mostly Cloudy
1:44 AM 33.8°F 32.0°F 93% 29.82 in 6.0 miles Calm Calm - 0.03 in   Mostly Cloudy
1:53 AM 33.1°F 32.0°F 96% 29.83 in 6.0 miles Calm Calm - 0.03 in   Partly Cloudy
2:33 AM 33.8°F 32.0°F 93% 29.83 in 6.0 miles Calm Calm - 0.00 in   Mostly Cloudy
2:53 AM 32.0°F 32.0°F 100% 29.84 in 6.0 miles SE 3.5 mph - 0.00 in   Mostly Cloudy
3:53 AM 32.0°F 32.0°F 100% 29.84 in 6.0 miles East 4.6 mph - 0.01 in   Mostly Cloudy
4:53 AM 33.1°F 32.0°F 96% 29.85 in 6.0 miles Variable 3.5 mph - 0.00 in   Mostly Cloudy
5:53 AM 32.0°F 30.9°F 96% 29.86 in 6.0 miles East 4.6 mph - 0.00 in   Partly Cloudy
6:07 AM 32.0°F 30.2°F 93% 29.85 in 1.8 miles Variable 3.5 mph - 0.00 in Snow Light Snow
6:16 AM 32.0°F 30.2°F 93% 29.85 in 3.0 miles East 3.5 mph - 0.00 in Snow Light Snow
6:53 AM 32.0°F 32.0°F 100% 29.86 in 6.0 miles Calm Calm - 0.00 in   Mostly Cloudy
7:41 AM 33.8°F 32.0°F 93% 29.87 in 6.0 miles NNW 5.8 mph - 0.01 in Rain Light Freezing Rain
7:49 AM 33.8°F 32.0°F 93% 29.87 in 3.0 miles East 4.6 mph - 0.01 in Snow Light Snow
7:53 AM 33.1°F 32.0°F 96% 29.88 in 3.0 miles ESE 5.8 mph - 0.01 in Snow Light Snow
8:53 AM 34.0°F 32.0°F 92% 29.89 in 4.0 miles Calm Calm - 0.00 in Rain Light Rain
9:53 AM 32.0°F 32.0°F 100% 29.91 in 4.0 miles ENE 3.5 mph - 0.00 in   Clear
10:53 AM 35.1°F 34.0°F 96% 29.92 in 5.0 miles East 3.5 mph - N/A   Mostly Cloudy
11:46 AM 37.4°F 35.6°F 93% 29.91 in 6.0 miles SE 5.8 mph - N/A   Partly Cloudy
11:53 AM 39.0°F 36.0°F 89% 29.92 in 6.0 miles SSE 5.8 mph - N/A   Partly Cloudy
12:41 PM 37.4°F 35.6°F 93% 29.92 in 6.0 miles Variable 5.8 mph - N/A   Mostly Cloudy
12:49 PM 37.4°F 33.8°F 87% 29.92 in 6.0 miles SE 6.9 mph - N/A   Scattered Clouds
12:53 PM 37.9°F 35.1°F 89% 29.93 in 6.0 miles SSE 4.6 mph - N/A   Partly Cloudy
1:25 PM 39.2°F 35.6°F 87% 29.92 in 6.0 miles Calm Calm - N/A   Mostly Cloudy
1:44 PM 37.4°F 33.8°F 87% 29.92 in 6.0 miles Variable 5.8 mph - N/A   Overcast
1:53 PM 37.0°F 34.0°F 89% 29.93 in 6.0 miles SE 8.1 mph - N/A   Overcast
2:34 PM 39.2°F 35.6°F 87% 29.92 in 5.0 miles Variable 5.8 mph - N/A   Mostly Cloudy
2:53 PM 37.9°F 34.0°F 86% 29.93 in 5.0 miles SSE 8.1 mph - N/A   Mostly Cloudy
3:53 PM 35.1°F 33.1°F 92% 29.94 in 5.0 miles SW 3.5 mph - N/A   Mostly Cloudy
4:53 PM 34.0°F 32.0°F 92% 29.93 in 7.0 miles SSE 3.5 mph - 0.00 in   Scattered Clouds
5:36 PM 33.8°F 32.0°F 93% 29.92 in 2.5 miles SE 5.8 mph - 0.00 in Snow Light Snow
5:42 PM 33.8°F 32.0°F 93% 29.92 in 3.0 miles SSE 5.8 mph - 0.00 in Snow Light Snow
5:53 PM 34.0°F 33.1°F 96% 29.92 in 4.0 miles SE 8.1 mph - 0.00 in Rain Light Rain
6:14 PM 33.8°F 33.8°F 100% 29.91 in 6.0 miles SE 4.6 mph - 0.00 in   Scattered Clouds
6:53 PM 34.0°F 33.1°F 96% 29.92 in 7.0 miles SE 3.5 mph - 0.00 in   Scattered Clouds
7:53 PM 34.0°F 33.1°F 96% 29.91 in 7.0 miles Calm Calm - 0.00 in   Clear
8:53 PM 35.1°F 33.1°F 92% 29.89 in 7.0 miles SE 9.2 mph - N/A   Overcast
9:53 PM 36.0°F 33.1°F 89% 29.87 in 4.0 miles SE 13.8 mph 19.6 mph 0.00 in Rain Light Rain
10:53 PM 36.0°F 33.1°F 89% 29.84 in 7.0 miles SSE 10.4 mph - 0.00 in   Overcast
11:26 PM 35.6°F 33.8°F 93% 29.82 in 4.0 miles SE 12.7 mph 20.7 mph 0.01 in Rain Light Rain
11:42 PM 35.6°F 33.8°F 93% 29.81 in 4.0 miles SSE 11.5 mph 19.6 mph 0.02 in Rain Light Rain
11:53 PM 35.1°F 34.0°F 96% 29.81 in 4.0 miles SE 13.8 mph 21.9 mph 0.03 in Rain Light Rain
Moon Phase
Dec. 18 Dec. 20 Dec. 28 Jan. 04 Jan. 11
Sunrise:08:03 AM (PST) Moon Rise:11:21 AM (PST)12/18
Sunset:04:26 PM (PST) Moon Set:11:26 PM (PST)12/18

Copyright © 2014 The Weather Underground, Inc.